Lapse_Rate
5.9 6.0 6.1 5.9 5.9 5.9 5.8 6.1 6.2 6.2 6.2 6.2 6.3 6.4 6.4 6.5 6.5 6.4 6.2 6.4 6.7 6.7 6.8 6.9 7.0 7.2 7.2 7.4 7.1 7.3 7.3 8.3 9.4 9.6 8.5 7.9 8.0 7.4 7.9 7.9 7.7 7.4 7.6 7.7 7.8
5.9 5.9 6.1 6.0 5.9 5.9 5.8 5.8 6.1 6.1 6.1 6.1 6.1 6.2 6.3 6.5 6.5 6.5 6.6 6.6 6.5 6.6 6.8 7.0 6.7 7.0 6.9 6.8 6.8 7.1 7.7 9.1 8.4 8.5 7.6 7.6 8.1 7.4 7.6 7.6 7.6 7.4 7.2 7.4 8.1
5.8 5.8 6.0 6.1 5.9 5.9 6.0 5.8 5.9 6.0 6.0 6.1 6.1 6.1 6.2 6.4 6.5 6.2 6.7 6.6 6.6 6.7 6.8 6.9 7.1 7.1 7.1 7.1 7.2 7.3 7.6 7.6 7.3 7.7 8.0 8.1 7.7 7.5 7.4 7.6 7.8 7.3 7.6 7.6 7.6
5.9 5.8 5.9 6.0 6.0 6.0 5.9 5.9 5.8 5.8 5.9 6.0 6.0 6.0 6.0 6.1 6.0 6.1 6.6 6.6 6.7 6.8 6.8 6.9 7.0 7.1 6.9 7.2 7.3 7.3 7.6 7.5 7.5 7.9 8.2 8.1 7.4 7.8 7.4 7.6 7.5 7.6 7.7 7.9 7.6
5.9 5.8 5.7 6.0 5.8 6.0 5.8 6.0 5.8 5.7 5.8 5.9 6.0 6.0 6.0 5.8 6.1 6.4 6.5 6.8 6.8 6.8 6.9 6.9 7.1 6.7 6.8 7.3 7.2 7.2 7.5 7.2 7.4 7.7 8.1 7.9 7.8 7.7 7.8 7.8 7.1 7.7 7.9 7.7 7.5
5.5 6.0 5.7 5.8 5.7 5.8 5.7 5.8 6.0 5.8 5.7 5.9 5.9 5.9 5.8 5.8 5.2 6.5 6.5 6.5 6.7 6.8 6.8 6.7 6.3 6.3 6.9 6.8 6.9 6.9 7.2 7.3 7.3 7.2 7.2 7.4 7.6 7.3 7.7 7.5 7.4 7.0 7.2 7.0 7.0
5.6 5.4 5.8 5.6 5.8 5.6 5.6 5.7 5.7 5.9 5.7 5.7 5.7 5.9 5.9 6.4 5.3 6.3 6.3 6.4 6.7 6.5 6.6 6.9 7.2 7.2 6.5 7.0 6.5 7.4 7.4 7.5 7.6 7.9 7.4 7.1 7.6 8.1 7.6 7.3 7.2 7.1 6.9 6.4 6.5
5.7 5.6 5.4 5.5 5.9 5.7 5.5 5.5 5.7 5.6 5.8 5.7 5.7 5.6 5.8 6.3 5.6 6.3 6.5 6.4 6.7 6.7 6.6 7.0 7.0 7.0 7.1 6.7 7.2 7.3 7.2 7.6 8.2 7.9 7.4 7.6 7.6 8.5 7.6 7.0 6.9 7.0 7.4 6.8 6.3
5.1 5.6 5.4 5.9 5.8 5.6 5.3 5.3 5.4 5.5 5.6 5.6 5.5 5.4 5.5 6.4 6.3 6.5 6.4 6.4 6.5 6.6 6.6 7.1 6.9 6.9 6.8 7.0 7.1 7.2 7.4 7.9 8.5 8.3 8.0 7.3 7.8 8.2 7.8 7.4 7.0 7.0 7.0 6.9 6.4
4.7 5.2 5.8 5.6 6.1 5.5 5.3 5.1 5.2 5.4 5.3 5.3 5.3 4.6 5.3 6.5 6.8 6.3 6.4 6.4 6.3 6.5 6.6 6.9 6.8 6.7 7.0 6.6 6.8 7.5 7.8 8.2 8.9 9.1 8.2 7.7 7.5 7.7 8.0 8.0 7.9 7.2 6.9 6.7 6.3
4.2 4.5 5.3 6.1 5.4 5.5 5.2 4.9 4.8 4.9 4.9 5.2 5.6 5.9 5.8 5.6 6.4 6.8 6.6 6.6 6.3 6.4 6.4 7.0 6.6 6.4 7.5 7.3 7.4 7.7 8.1 7.8 8.2 8.7 8.2 8.1 7.4 7.5 7.6 7.8 7.8 7.1 6.5 6.3 6.1
3.8 4.5 4.9 4.5 5.3 5.3 5.6 5.7 5.9 5.4 5.2 5.8 5.5 5.6 5.8 4.6 6.1 6.7 6.6 6.6 6.4 6.4 6.7 5.9 6.0 7.0 6.9 7.2 7.3 7.4 7.4 7.6 7.9 8.2 8.2 8.1 7.8 7.5 7.5 7.8 7.5 7.0 6.7 6.5 6.1
3.6 4.9 4.6 5.0 4.2 5.2 5.7 6.2 5.9 5.1 4.6 5.3 5.9 5.7 6.6 5.5 6.4 6.4 6.4 6.8 6.4 6.5 5.9 6.2 6.6 7.4 6.8 7.1 7.2 7.2 7.3 7.5 7.8 8.2 8.4 7.8 7.4 7.4 7.7 7.6 7.2 7.1 6.7 6.5 6.3
3.3 3.9 4.0 4.9 4.2 4.4 4.5 5.5 5.1 5.2 4.6 5.0 5.3 5.9 5.7 4.9 5.5 6.0 5.6 6.7 5.8 6.2 6.3 6.4 6.7 6.8 6.8 6.8 7.0 6.8 7.3 7.6 7.8 7.6 7.9 8.3 7.9 8.3 8.4 7.8 7.2 7.1 6.8 6.3 6.1
3.3 3.4 3.7 4.3 5.0 4.5 4.6 4.8 4.3 5.1 5.5 5.2 5.0 5.5 6.2 5.6 5.9 6.5 5.3 6.1 5.9 6.0 6.3 6.3 6.5 6.9 6.6 6.9 7.0 7.0 7.3 7.1 7.3 7.3 7.5 7.7 8.0 8.0 8.1 7.5 6.8 7.1 6.4 6.1 5.9
2.9 2.8 3.7 4.4 4.9 4.4 4.7 4.7 3.9 4.7 4.6 6.2 5.9 5.3 5.6 5.5 5.8 6.2 6.0 6.0 6.4 6.2 6.2 6.7 6.7 6.6 6.7 6.7 6.8 7.0 6.8 6.7 7.3 7.6 7.6 7.7 8.0 7.7 8.5 8.5 7.2 6.5 6.4 6.3 6.1
3.3 2.8 3.6 4.0 4.5 4.9 4.9 4.6 4.8 4.6 4.1 5.3 5.6 4.9 5.3 5.5 4.9 5.9 5.6 5.1 5.5 5.7 5.8 6.3 6.8 6.3 6.2 6.4 6.5 6.5 6.5 7.2 7.4 7.9 7.9 8.1 8.2 7.7 8.2 8.6 7.8 6.7 6.5 6.8 6.7
3.7 3.0 3.3 3.6 4.2 4.5 5.6 5.7 5.4 5.2 3.7 5.7 6.0 5.1 4.9 5.4 5.0 6.4 5.7 5.2 5.6 5.5 6.2 6.2 6.3 6.4 5.9 6.1 6.6 6.4 6.9 7.4 8.3 8.5 8.8 8.8 7.8 8.2 8.4 8.1 7.8 7.5 7.5 7.2 7.4
4.0 3.9 4.0 3.6 4.1 4.8 5.2 5.7 5.3 5.0 4.5 6.2 5.5 5.4 5.1 5.4 5.2 5.6 5.8 5.3 6.1 5.5 6.2 6.4 6.5 7.1 6.5 6.4 7.0 6.6 6.5 7.1 8.1 8.4 8.0 7.7 8.4 7.9 8.2 7.7 7.5 7.8 7.4 7.6 7.5
4.2 4.1 4.4 3.9 4.5 4.9 5.3 5.5 5.4 5.6 5.5 6.3 5.4 4.9 4.9 5.4 5.7 5.2 6.1 5.8 5.6 5.9 5.9 6.9 6.8 7.0 7.4 7.0 6.6 7.1 7.5 7.3 7.5 7.1 7.2 7.6 7.6 7.9 7.8 7.4 7.9 8.1 7.5 7.6 7.2
4.5 4.2 4.3 4.8 4.7 5.8 6.4 6.0 5.1 5.8 6.1 6.0 5.4 5.0 5.7 5.9 5.7 5.6 6.1 6.5 5.7 5.9 6.1 6.4 7.0 7.4 8.0 6.5 6.3 6.0 6.9 7.3 7.3 7.2 7.5 7.3 7.7 8.0 8.5 7.4 7.9 8.3 8.0 7.5 7.4
5.0 4.1 4.5 5.1 6.4 6.6 6.3 5.9 4.9 5.5 6.3 6.1 5.4 6.0 6.2 6.4 6.4 6.5 6.1 6.3 6.4 6.2 6.1 6.2 6.6 6.7 7.1 7.3 6.6 6.6 6.6 7.3 7.3 6.9 6.8 7.4 7.9 7.5 7.9 7.8 7.8 7.5 7.2 7.3 7.0
5.2 4.4 5.0 5.0 6.1 6.6 6.5 6.3 5.7 5.4 5.7 5.5 5.7 5.5 5.9 6.3 6.0 6.0 6.1 6.6 6.6 6.4 6.1 6.2 6.2 6.1 6.3 6.3 6.7 6.1 6.8 7.0 7.1 7.0 6.6 6.9 6.8 7.7 7.8 7.7 7.3 7.3 7.0 6.7 6.6
5.9 5.0 5.2 6.1 6.0 6.8 7.3 6.0 5.9 5.9 6.0 5.5 6.0 6.3 6.3 6.1 6.0 5.9 6.1 6.4 6.3 5.7 6.2 6.6 6.0 5.7 5.8 6.2 6.4 5.9 6.6 6.9 7.0 6.7 6.7 6.6 7.2 7.4 7.7 7.9 7.8 7.4 7.2 7.0 7.0
6.3 5.6 5.5 5.8 6.2 6.5 6.3 6.3 6.2 6.3 6.3 5.6 5.6 6.1 6.5 5.9 5.6 5.8 6.1 6.3 5.7 5.5 6.3 6.6 5.7 5.7 6.2 7.2 6.7 7.1 7.3 7.3 7.2 6.9 6.9 6.7 6.9 7.6 8.3 7.6 7.8 7.7 7.5 7.3 7.0
6.6 6.2 6.1 6.1 5.9 6.1 6.3 6.7 6.2 5.8 6.8 6.3 5.4 5.8 6.0 5.9 6.2 5.5 6.1 6.0 6.0 5.9 5.8 6.1 5.6 6.2 6.4 6.7 7.1 7.3 7.3 7.3 7.4 7.4 7.2 7.1 6.8 7.8 8.0 8.3 8.2 7.5 7.5 7.8 7.6
6.8 6.6 6.8 6.5 6.5 6.3 6.7 5.8 5.8 6.3 6.4 6.5 5.9 6.6 6.3 6.4 6.6 6.4 6.2 5.5 6.3 6.2 6.0 5.9 5.8 6.1 5.8 7.0 6.9 6.3 6.4 8.0 7.7 7.6 7.6 7.6 7.5 8.1 8.2 8.1 7.8 7.9 8.6 7.5 7.3
Wind_Speed
24 24 24 24 20 19 16 14 11 9 8 10 14 18 22 23 29 17 14 2 3 12 15 13 15 12 8 12 7 10 5 11 12 13 10 6 3 8 1 3 2 1 6 9 7
25 24 24 23 21 20 18 16 12 11 9 9 12 17 22 22 16 18 4 3 7 11 10 9 10 5 9 9 5 8 10 7 10 12 12 8 2 5 3 6 3 3 10 9 5
28 26 25 24 22 21 20 17 14 12 9 9 11 16 22 21 11 5 4 2 5 9 11 10 10 12 14 13 10 10 14 7 8 7 7 6 2 5 4 7 5 5 6 4 3
29 27 26 24 22 21 21 19 15 12 10 9 11 14 22 6 5 5 7 1 4 10 11 9 7 10 11 12 12 5 14 3 5 2 4 3 5 8 7 8 6 3 2 4 7
29 28 27 25 23 21 22 20 17 13 10 8 10 12 8 9 15 8 6 6 8 10 9 7 8 10 12 8 7 11 12 4 5 4 6 8 10 10 10 9 4 4 2 7 4
29 28 28 26 25 22 22 21 18 13 9 8 8 12 6 14 3 9 8 5 9 7 8 8 6 8 9 7 8 6 7 8 9 10 11 11 11 10 9 9 4 8 6 4 4
22 29 28 27 25 23 21 21 18 14 9 7 8 7 13 17 1 6 4 9 3 8 7 2 6 8 5 7 5 7 10 12 15 14 11 2 12 20 13 9 9 10 10 6 6
17 25 29 27 25 24 22 21 17 13 9 7 7 9 9 13 25 22 9 7 5 2 4 2 6 9 8 8 4 6 10 9 14 20 8 6 12 17 14 10 8 10 5 4 6
18 14 26 27 26 25 23 20 16 11 7 7 5 8 14 1 15 15 15 13 10 7 3 3 5 7 6 8 7 11 9 15 16 15 11 11 7 8 13 11 10 8 9 3 2
21 14 14 28 27 25 24 20 12 8 6 8 10 8 16 15 12 17 18 15 12 9 6 5 5 7 8 10 10 11 17 17 14 13 8 11 13 11 13 13 12 4 7 3 5
24 17 12 20 29 29 19 9 7 7 19 13 12 13 8 19 3 14 15 18 15 14 13 15 8 14 19 17 17 17 16 14 14 12 11 12 10 14 17 18 7 7 8 8 5
26 18 14 12 27 37 23 19 27 5 11 26 25 23 23 6 10 14 17 16 18 20 18 13 19 19 17 18 19 18 16 15 16 15 15 14 14 15 17 20 10 9 7 8 9
26 21 16 12 24 22 26 32 17 17 6 19 32 24 15 15 14 19 22 23 20 20 20 22 10 22 19 16 14 13 14 14 17 15 9 7 18 19 22 20 9 6 8 8 7
25 21 20 17 10 15 23 22 23 17 6 14 16 16 27 17 14 24 23 22 16 23 22 21 22 20 20 20 16 16 16 18 17 11 13 11 16 17 13 15 11 11 9 8 7
27 24 24 20 6 13 15 20 3 2 8 13 28 12 19 26 8 25 24 21 21 16 22 17 21 22 17 19 16 15 7 10 9 11 14 16 11 12 12 13 14 14 12 10 12
29 30 23 12 9 7 15 10 5 5 10 9 21 25 28 31 20 18 26 21 18 20 19 22 15 16 20 15 13 9 8 7 10 10 12 15 14 12 15 15 18 16 13 11 10
27 29 20 10 11 10 15 10 9 6 2 9 31 28 32 28 29 14 27 26 19 18 20 19 22 14 9 16 13 12 8 4 4 7 9 11 13 15 12 8 22 19 15 13 11
22 23 20 13 12 15 4 11 15 10 22 10 20 21 30 29 31 29 26 24 27 24 14 18 17 25 16 21 14 17 14 6 8 10 14 15 12 13 4 7 18 18 16 13 12
18 11 12 12 17 16 17 14 13 16 27 9 17 21 24 28 17 26 28 28 26 28 20 19 21 18 22 20 21 18 21 18 14 15 7 7 11 5 6 10 16 16 16 14 14
10 8 12 7 11 14 16 13 19 20 23 23 19 20 23 30 25 26 28 29 29 30 20 11 13 21 26 24 24 23 13 13 9 9 12 11 15 11 13 14 16 17 17 16 14
9 5 4 11 3 13 14 13 14 26 13 31 20 19 22 23 30 29 24 17 32 30 26 14 8 13 18 24 20 15 18 14 11 12 7 6 6 9 13 20 19 18 17 16 15
8 6 7 11 8 5 8 9 15 22 22 9 14 22 20 25 25 26 33 30 24 24 34 28 10 14 21 17 23 22 24 22 9 15 16 8 2 10 6 14 12 15 16 16 16
7 7 7 8 10 6 2 12 20 23 21 18 19 14 16 20 13 26 23 25 15 28 26 24 10 10 8 17 20 24 18 20 17 10 18 11 4 2 16 15 15 14 16 15 16
5 6 4 7 2 5 7 14 15 26 22 19 21 15 17 14 18 17 22 16 8 18 24 25 12 21 16 19 15 22 22 22 20 15 13 18 13 14 8 7 10 13 14 17 16
5 4 6 6 5 4 10 17 22 16 20 23 18 16 13 9 10 6 16 19 15 15 15 21 19 18 17 11 24 22 24 25 25 21 19 15 20 14 9 11 9 10 15 17 18
4 4 6 4 8 17 8 16 24 25 21 28 16 25 22 16 15 16 19 14 16 16 11 7 16 13 16 19 14 25 25 26 23 23 23 22 24 12 14 9 10 15 16 8 10
6 8 1 8 9 6 12 12 23 27 22 26 28 22 23 24 21 22 18 4 3 17 18 17 6 14 11 17 4 10 21 19 20 20 19 19 19 10 12 9 10 11 5 17 12
Wind_Direction
226 231 227 233 221 223 232 238 241 253 275 302 317 321 324 327 321 298 247 46 20 347 327 273 264 251 240 255 235 268 259 256 278 274 107 99 174 122 80 286 106 68 46 85 106
221 226 226 224 224 219 224 230 236 248 267 292 310 318 321 332 309 282 115 114 30 356 322 336 315 312 250 238 226 225 240 310 8 22 81 110 25 30 295 207 220 193 122 138 154
219 221 225 224 223 222 216 225 226 240 258 285 307 317 320 327 297 243 140 69 27 310 280 295 283 270 269 234 231 250 243 28 67 22 13 17 307 273 282 276 308 36 4 330 304
220 216 218 221 220 219 218 217 223 230 246 276 301 316 317 295 272 96 149 169 291 286 286 275 264 255 251 249 229 271 264 301 308 90 317 293 311 286 301 290 332 56 7 291 263
218 215 213 215 217 213 219 216 217 222 234 263 295 317 322 241 256 139 179 197 255 259 271 277 269 252 253 250 246 239 267 233 283 242 256 270 265 268 263 265 180 227 289 260 323
220 214 209 210 211 209 212 215 211 214 227 254 286 314 242 260 269 151 222 234 256 247 243 239 277 353 301 301 265 1 312 292 272 244 239 244 258 242 250 221 185 217 229 257 272
245 214 210 205 205 201 206 208 210 205 215 243 277 281 262 241 139 143 233 242 262 264 232 18 334 283 338 249 277 278 275 268 243 234 228 237 262 243 226 176 221 231 194 202 291
274 232 207 202 199 193 196 201 200 202 204 237 276 268 254 260 244 258 233 222 208 203 333 15 310 283 265 307 256 245 236 261 257 201 157 167 283 304 176 175 221 250 225 201 237
274 287 218 196 190 187 183 189 186 184 204 224 247 226 257 159 223 237 214 224 196 215 239 316 275 252 204 233 258 220 251 231 237 173 159 188 269 338 164 191 220 240 275 252 67
266 270 284 196 187 176 162 162 158 149 224 216 251 238 249 238 221 223 219 222 225 208 235 223 225 227 218 223 218 233 219 240 248 176 193 228 263 259 268 258 239 216 268 262 195
261 245 249 230 179 159 138 130 168 212 205 201 186 216 298 205 303 197 201 200 211 202 211 197 212 210 219 216 239 264 289 292 298 309 292 223 240 267 268 263 235 195 222 220 180
238 239 239 253 186 165 170 194 192 138 202 227 253 214 245 188 212 221 193 187 196 209 214 217 226 226 228 235 235 244 259 261 276 282 274 282 277 274 268 266 215 223 182 234 195
219 226 226 235 213 172 190 201 195 238 252 198 217 227 221 217 229 207 187 201 199 208 209 222 216 219 237 229 238 245 245 258 272 289 268 257 269 261 257 252 150 165 224 187 189
213 213 211 208 168 199 199 195 230 220 255 225 204 231 214 203 243 233 188 193 211 216 213 228 234 245 209 229 209 236 237 245 257 272 262 263 273 294 269 175 161 184 202 170 113
204 212 209 185 139 203 185 199 8 122 227 210 194 169 192 198 150 201 183 210 213 210 204 213 212 227 228 218 215 235 295 304 278 262 277 257 270 253 249 185 183 184 185 146 148
208 204 206 209 193 239 163 138 68 203 205 225 166 186 186 197 220 173 190 211 223 228 228 231 202 219 228 233 223 245 242 262 262 263 250 246 248 261 242 195 180 175 166 153 146
210 205 196 196 209 171 158 156 188 217 168 221 169 175 193 191 200 201 191 193 203 206 221 223 223 197 219 218 221 212 184 218 226 221 252 241 238 232 244 277 178 162 156 159 158
204 207 208 219 211 183 198 170 206 184 192 247 164 184 195 190 200 213 190 196 214 204 196 205 215 215 194 210 196 205 195 193 227 236 259 242 231 239 318 165 145 149 155 159 163
191 204 208 212 189 181 190 203 187 194 200 222 159 182 196 201 187 203 209 203 204 201 213 198 223 180 206 205 217 192 216 228 272 284 281 240 277 106 151 126 139 155 157 167 173
191 200 217 195 220 187 204 206 198 204 187 208 191 199 192 199 195 194 207 202 207 210 213 224 220 225 195 197 217 234 201 213 235 235 244 234 236 247 179 163 163 166 173 176 177
180 197 195 189 226 197 203 201 205 206 184 196 192 199 208 195 203 194 207 205 198 197 212 225 233 210 198 201 193 208 233 224 211 228 230 254 258 238 234 172 181 179 179 178 181
183 201 177 160 215 232 197 176 213 206 218 215 198 225 208 208 207 212 214 204 193 203 200 205 227 229 220 221 208 210 216 220 210 211 231 250 174 103 93 165 185 186 183 184 189
185 190 148 141 214 228 205 204 208 205 197 192 196 232 255 217 208 216 221 210 209 197 213 181 218 222 236 228 218 222 214 213 225 230 234 217 176 27 189 184 185 197 195 192 194
172 172 227 179 179 192 184 188 194 209 204 195 198 220 223 241 215 213 221 221 224 229 210 180 178 211 210 214 179 211 222 209 213 220 231 237 237 225 153 201 175 188 195 190 197
178 188 194 193 179 201 202 171 199 185 209 192 201 205 220 218 223 245 223 216 201 232 185 186 202 201 221 199 193 199 210 209 213 217 222 228 246 244 181 193 224 210 203 201 196
138 162 194 268 187 206 212 199 198 197 183 200 196 199 217 227 213 202 238 206 201 204 189 182 209 220 235 229 204 212 214 219 218 220 228 229 246 232 251 262 199 203 233 234 230
177 199 76 221 207 228 214 229 199 200 206 199 207 199 213 226 225 240 191 169 287 191 188 182 148 201 224 220 98 240 246 205 213 230 240 242 249 242 246 260 274 274 219 203 238